AirNav   Bose Proflight Series 2 Wireless viation Headset
 
 812 users online  

61J Portland Downtown Heliport
Portland, Oregon, USA

GOING TO PORTLAND?


FAA INFORMATION EFFECTIVE 10 OCTOBER 2019

Location

FAA Identifier: 61J
Lat/Long: 45-31-31.0000N 122-40-15.3440W
45-31.516667N 122-40.255733W
45.5252778,-122.6709289
(estimated)
Elevation: 78 ft. / 23.8 m (surveyed)
Variation: 18E (2000)
Time zone: UTC -7 (UTC -8 during Standard Time)
Zip code: 97209

Heliport Operations

Heliport use: Open to the public
Activation date: 07/1989
Control tower: no
ARTCC: SEATTLE CENTER
FSS: MC MINNVILLE FLIGHT SERVICE STATION
NOTAMs facility: MMV (NOTAM-D service available)
Attendance: UNATNDD
Wind indicator: lighted
Segmented circle: no
Lights: FOR HELIPORT PLASI WHEN APPROACHING FLT APCH & TKOF 020 - ACTVT CTAF 3 TIMES; WHEN APPROACHING FLIGHT APCH & TKOF 025 - ACTVT CTAF 5 TIMES; WHEN APPROACHING FLT APCH & TKOF 030 - ACTVT CTAF 7 TIMES.
Beacon: white-green-yellow (heliport)
Operates sunset to sunrise.
Landing fee: yes

Heliport Communications

CTAF/UNICOM: 123.075
WX ASOS at PDX (5 nm NE): PHONE (503) 493-7687
WX ASOS at VUO (6 nm N): 135.125 (360-696-1280)
WX ASOS at TTD (11 nm E): 135.625 (503-492-2887)
WX ASOS at HIO (12 nm W): PHONE 503-640-2984
WX ASOS at SPB (17 nm NW): 135.875 (503-543-6401)
WX ASOS at UAO (17 nm S): PHONE 503-678-3011

Nearby radio navigation aids

VOR radial/distance  VOR name  Freq  Var
BTGr173/13.8BATTLE GROUND VORTAC116.6021E
UBGr030/16.5NEWBERG VOR/DME117.4021E

 
NDB name  Hdg/Dist  Freq  Var  ID
BANKS096/17.035616EPND .--. -. -..
KELSO148/39.125617ELSO .-.. ... ---

Heliport Services

Airframe service: NONE
Powerplant service: NONE

Runway Information

Helipad H1

Dimensions: 80 x 80 ft. / 24 x 24 m
Surface: concrete, in good condition
Weight bearing capacity: 
Single wheel: 25.0
Runway edge lights: PERI
YELLOW PERIMETER LGTS; BLUE CNTRLN TWY LGTS TO HELIPADS.
Operational restrictions: SINGLE HELIPORT WITH 4 FLIGHT APCHS 162/220/248/295 & TKOF DIRECTIONS 342/040/068/115.
Traffic pattern: leftleft
Markings: basic, in good condition
Approach lights: ARROW LGTS FOR FLIGHT APCH 220/248/295 & TKOF 040/068/115.

Heliport Ownership and Management from official FAA records

Ownership: Publicly-owned
Owner: CITY OF PORTLAND-BUREAU OF TRANSPT
1120 SW 5 TH AVE, SUITE 800
PORTLAND, OR 97204
Phone 503-823-5049
Manager: PORTLAND BUREAU OF TRANSPORTATION
1120 SW 5TH AVE, SUITE 800
PORTLAND, OR 97204
Phone 503-823-5049

Heliport Operational Statistics

Aircraft operations: avg 99/week *
59% transient general aviation
39% air taxi
2% military
* for 12-month period ending 20 September 2016

Additional Remarks

A52-H1 FLT APCH & TKOF 16 APCH 200 FT BRIDGE 950 FT FROM HELIPAD 280 FT L; FLT APCH & TKOF 20 APCH 225 FT LGTD BLDG 2100 FT FROM HELIPAD 300 FT L; FLT APCH & TKOF 25 APCH 375 FT LGTD BLDG 3600 FT FROM HELIPAD 350 FT R; & FLT APCH & TKOF 30 APCH 115 FT BRIDGE 930 FT FROM HELIPAD ACROSS APCH PATH.
+199 FT RADIO TOWER (LIGHTED) 4950 FT E OF HELIPORT IN FLT APCH & TKOF 025.
FOR CD CTC PORTLAND APCH AT 503-493-7545.

Instrument Procedures

There are no published instrument procedures at 61J.

Some nearby airports with instrument procedures:

KPDX - Portland International Airport (5 nm NE)
KVUO - Pearson Field Airport (6 nm N)
KTTD - Portland-Troutdale Airport (11 nm E)
KHIO - Portland-Hillsboro Airport (12 nm W)
KSPB - Scappoose Industrial Airpark (17 nm NW)
KUAO - Aurora State Airport (17 nm S)
 
Loc | Ops | Rwys | IFR | FBO | Links
Com | Nav | Svcs | Stats | Notes
Area around 61J (Portland Downtown Heliport)
 
Road maps at: MapQuest Bing Google
 
Aerial photo
WARNING: Photo may not be current or correct
Aerial photo of 61J (Portland Downtown Heliport)
Photo taken 01-Aug-2018
looking west.

Do you have a better or more recent aerial photo of Portland Downtown Heliport that you would like to share? If so, please send us your photo.

 
Sectional chart

 
Airport distance calculator
Flying to Portland Downtown Heliport? Find the distance to fly.

From to 61J

Sunrise and sunset
Times for 19-Oct-2019
 Local
(UTC-7)
 Zulu
(UTC)
Morning civil twilight07:0314:03
Sunrise07:3314:33
Sunset18:1801:18
Evening civil twilight18:4801:48

Current date and time
Zulu (UTC)  20-Oct-2019 02:01:33
Local (UTC-7)  19-Oct-2019 19:01:33
 
METAR
KPDX 
5nm NE 
200153Z 00000KT 10SM BKN043 BKN065 BKN080 12/07 A3005 RMK AO2 RAE01 SLP176 P0000 T01170067
KVUO 
6nm N 
200153Z AUTO 00000KT 10SM SCT047 BKN065 BKN080 11/07 A3005 RMK AO2 SLP174 T01110067
KTTD 
11nm E 
200153Z 26004KT 10SM BKN065 OVC080 12/06 A3005 RMK AO2 RAB0058E21 SLP174 P0001 T01170061
KHIO 
12nm W 
200153Z 22006KT 10SM FEW046 BKN060 OVC070 11/07 A3004 RMK AO2 RAB21E53 SLP174 P0001 T01060067
KSPB 
17nm NW 
200153Z AUTO 00000KT 10SM FEW100 09/07 A3003 RMK AO2 SLP170 T00890067
KUAO 
17nm S 
200153Z 21005KT 10SM BKN065 OVC090 10/06 A3007 RMK AO2 SLP183 T01000056
TAF
KPDX 
5nm NE 
192057Z 1921/2018 27015G25KT P6SM -SHRA SCT025 BKN030 OVC060 FM200100 27009KT P6SM VCSH SCT025 BKN070 FM200900 20005KT P6SM FEW050 OVC120 FM201400 13011KT 6SM -RA BR SCT020 OVC045
KTTD 
11nm E 
191722Z 1918/2018 22010KT P6SM -SHRA SCT012 BKN035 OVC045 FM192000 24010G18KT P6SM -SHRA SCT020 BKN035 BKN050 FM200000 26007KT P6SM VCSH SCT025 BKN060 FM200600 22004KT P6SM FEW030 BKN070
KHIO 
12nm W 
191722Z 1918/2018 22010KT P6SM -SHRA SCT012 BKN035 OVC060 FM192100 23012G22KT P6SM -SHRA SCT015 BKN035 BKN060 FM192300 25010KT P6SM VCSH SCT020 BKN060 FM200300 26005KT P6SM SCT025 BKN070
KUAO 
17nm S 
191722Z 1918/2018 22015G24KT P6SM -SHRA SCT010 BKN035 OVC050 FM192100 24012KT P6SM -SHRA SCT015 BKN035 BKN060 FM200000 24010KT P6SM VCSH SCT025 BKN060 FM200400 21005KT P6SM FEW030 BKN070
NOTAMs
Click for the latest NOTAMs
NOTAMs are issued by the DoD/FAA and will open in a separate window not controlled by AirNav.

 

 
 

Would you like to see your business listed on this page?

 If your business provides an interesting product or service to pilots, flight crews, aircraft, or users of the Portland Downtown Heliport, you should consider listing it here.  To start the listing process, click on the button below
 
Add a business
 

Other Pages about Portland Downtown Heliport

Update a link
 
Copyright © AirNav, LLC. All rights reserved. Privacy Policy  Contact